Flag for Brazil Weather past 2 weeks in Brasilia, Distrito Federal, Brazil

Now
68 °F

Passing clouds.


Feels Like: 68 °F
Forecast: 62 / 78 °F
Wind: 2 mph from Southwest

Location: Brasilia Aeroporto

Current Time: Mar 27, 2015 at 1:14:24 AM

Latest Report: Mar 27, 2015 at 12:00 AM


Visibility: N/A

Pressure: 30.09 "Hg

Humidity: 88%

Dew point: 64 °F

Location of BrasiliaLocation

Historic Weather in Brasilia — Graph

°F

Brasilia temperature yesterday

Maximum temperature yesterday: 81 °F (at 12:00 PM)
Minimum temperature yesterday: 64 °F (at 5:00 AM)
Average temperature yesterday: 71 °F

Past Weeks' High & Low Weather Summary

 TemperatureHumidityPressure
High81 °F (Mar 16, 4:00 PM)100% (Mar 12, 1:00 AM)30.21 "Hg (Mar 12, 1:00 AM)
Low34 °F (Mar 14, 6:00 PM)24% (Mar 25, 4:00 PM)29.95 "Hg (Mar 14, 4:00 PM)
Average68 °F83%30.07 "Hg
* Reported Mar 11 11:00 PM — Mar 26 11:00 PM, Brasilia, Weather by CustomWeather, © 2015

Note: Actual official high and low records may vary slightly from our data, if they occured in-between our weather recording intervals... More about our weather records

Advertising

Brasilia weather history for previous 24 hours

 ConditionsComfort  
Time TempWeatherWind HumidityBarometerVisibility
11:00 PM
Thu, Mar 26
68 °FPassing clouds.2 mph88%30.09 "HgN/A
10:00 PM70 °FPassing clouds.2 mph83%30.09 "HgN/A
9:00 PM70 °FPartly cloudy.3 mph83%30.09 "HgN/A
8:00 PM70 °FPartly cloudy.2 mph83%30.07 "HgN/A
7:00 PM72 °FPassing clouds.3 mph78%30.07 "HgN/A
6:00 PM73 °FThundershowers. Partly sunny.7 mph74%N/AN/A
5:00 PM73 °FThundershowers. Broken clouds.2 mph74%N/AN/A
4:00 PM72 °FThunderstorms. Partly sunny.10 mph78%30.07 "HgN/A
3:00 PM77 °FPartly sunny.10 mph65%30.04 "HgN/A
2:00 PM81 °FPartly sunny.3 mph58%30.04 "HgN/A
1:00 PM81 °FPartly sunny.7 mph62%30.07 "HgN/A
12:00 PM81 °FPartly sunny.5 mph58%30.09 "HgN/A
11:00 AM77 °FPartly sunny.8 mph69%30.15 "HgN/A
10:00 AM75 °FPartly sunny.7 mph74%30.15 "HgN/A
9:00 AM73 °FScattered clouds.5 mph83%30.15 "HgN/A
8:00 AM70 °FPassing clouds.2 mph88%30.12 "HgN/A
7:00 AM66 °FPassing clouds.2 mph83%30.12 "HgN/A
6:00 AM64 °FPassing clouds.No wind88%30.09 "HgN/A
5:00 AM64 °FPassing clouds.No wind94%30.09 "HgN/A
4:00 AM66 °FPassing clouds.3 mph88%30.09 "HgN/A
3:00 AM66 °FPassing clouds.No wind88%30.09 "HgN/A
2:00 AM68 °FPassing clouds.No wind88%30.12 "HgN/A
1:00 AM68 °FPassing clouds.No wind88%30.12 "HgN/A
Weather by CustomWeather, © 2015

See weather overviewHow to use our weather pages